Temp
1 1 1 2 4 5 7 7 8 8 8 8 8 7 10 11 13 14 18 18 19 20 19 20 20 22 22 23 22 22 23 20 18 21 24 25 24 23 23 20 20 21 20 19
1 1 1 2 4 5 7 7 8 8 7 7 8 10 10 12 14 16 17 17 19 20 16 16 18 21 19 19 21 21 22 20 17 15 22 23 22 24 24 23 22 19 18 20
1 1 1 2 4 6 6 7 7 8 6 8 10 10 10 10 13 16 17 18 19 19 15 20 18 17 18 19 20 17 18 20 18 14 17 20 21 23 23 21 16 19 20 21
0 1 2 3 3 6 6 6 7 7 7 8 10 12 12 11 13 15 16 17 17 18 17 18 18 18 18 19 17 18 20 19 18 17 19 21 21 21 21 21 21 19 20 21
1 1 1 2 3 5 6 7 7 7 9 9 10 10 11 12 14 15 15 16 17 18 18 19 18 18 14 19 19 20 20 18 18 11 20 20 18 20 18 21 22 22 22 22
1 1 1 1 3 4 6 6 7 9 8 9 9 11 12 12 14 15 16 16 17 18 19 18 18 17 18 18 19 19 19 18 17 16 19 20 18 20 20 21 22 21 20 22
1 1 0 1 2 3 6 7 7 8 8 9 10 12 13 13 14 15 16 16 16 17 17 16 16 17 18 18 19 19 18 18 16 15 18 14 19 21 21 21 21 22 22 22
1 1 1 1 1 2 5 6 7 8 8 10 10 11 11 12 14 13 14 16 17 16 16 15 15 15 15 17 18 18 18 17 14 14 16 18 20 20 19 19 19 21 21 21
0 1 1 1 0 1 4 6 7 8 9 9 12 11 12 11 10 9 10 11 14 14 13 12 12 13 15 15 16 18 17 17 14 14 14 15 19 21 20 20 17 21 20 18
-0 0 1 1 2 1 3 5 6 7 8 8 10 10 11 11 10 9 9 9 10 12 11 10 11 13 16 16 15 13 14 13 12 12 12 15 20 19 19 15 16 18 18 18
0 0 1 1 2 1 2 4 6 7 8 7 8 10 10 10 9 8 8 8 8 9 10 11 14 15 17 17 17 14 14 13 13 13 12 12 18 18 16 17 18 18 18 17
-0 0 0 1 1 2 1 4 6 6 7 6 7 8 7 8 10 9 8 10 9 10 12 14 15 15 17 17 14 17 13 15 13 14 15 17 18 18 17 17 17 17 17 17
-0 -0 0 0 0 0 0 3 5 5 5 5 6 6 8 8 8 8 9 8 11 12 14 14 15 15 16 15 16 17 17 17 16 16 17 18 17 17 17 17 16 16 16 16
-1 -0 -0 0 1 0 1 2 5 6 5 3 3 5 6 7 7 7 9 9 10 11 12 10 12 14 16 16 16 16 17 17 16 15 17 17 17 17 16 16 16 16 16 15
-0 -0 -0 0 1 0 1 3 5 5 7 2 2 4 4 6 7 8 8 9 9 10 10 11 12 15 15 16 16 16 17 17 14 14 16 16 16 16 16 16 16 16 15 15
-0 -0 -0 -0 0 1 1 4 5 5 7 5 3 2 4 5 6 8 8 9 9 10 12 12 13 12 13 13 13 15 16 17 17 16 15 15 15 15 15 15 15 14 14 14
-1 -0 -0 -0 0 1 1 1 3 5 6 6 1 1 3 5 5 7 7 7 8 9 10 10 11 12 12 12 12 15 15 16 16 16 15 15 15 14 14 14 14 14 14 14
-1 -1 -1 -1 -0 0 1 3 2 5 5 5 2 1 2 4 5 4 6 6 7 7 7 9 9 10 10 10 13 14 15 15 15 15 14 14 14 14 13 13 13 13 13 13
-1 -0 -1 -1 -0 -0 1 1 2 4 3 1 2 3 3 3 4 5 5 6 5 6 6 8 10 9 9 11 12 13 13 14 14 14 14 13 13 13 13 12 12 11 11 11
-1 -1 -1 -1 0 0 1 1 1 2 2 3 6 5 3 4 5 3 4 7 6 7 8 10 8 9 11 12 12 13 13 13 13 12 13 13 12 12 11 11 10 10 10 9
-1 -1 -0 -0 -0 1 0 -1 0 -1 1 3 7 6 4 6 6 4 6 6 7 7 7 8 8 9 10 11 12 12 12 12 12 12 12 11 11 10 10 9 9 9 9 8
-1 -1 -1 -0 -1 -1 0 1 0 1 4 6 8 7 7 7 7 5 7 6 7 7 8 7 7 10 11 11 11 11 11 11 11 11 11 10 10 9 9 8 8 8 8 8
-1 -1 -0 -1 -1 1 2 2 2 4 7 7 7 6 7 6 7 6 7 5 5 7 4 5 8 12 11 11 11 11 10 10 10 10 10 9 9 8 8 8 8 8 8 8
-1 -0 0 0 1 2 3 5 7 8 8 8 7 7 7 7 6 7 6 7 6 6 6 7 8 11 11 10 10 10 10 9 9 9 9 8 8 8 7 8 8 8 8 8
-1 -0 2 1 2 3 5 8 9 8 8 7 8 8 7 6 5 8 7 6 6 7 8 9 9 10 10 10 9 10 9 9 9 9 8 8 8 8 8 8 8 8 8 7
-1 -1 0 1 2 4 6 8 9 8 8 9 8 7 6 6 7 7 5 6 7 9 9 10 9 10 10 10 9 9 9 9 8 9 8 8 7 8 8 7 7 7 7 8
-1 0 -0 -0 3 4 7 8 8 8 9 7 7 6 7 9 7 7 9 8 10 10 10 10 10 10 10 9 9 9 8 8 8 8 8 8 7 7 7 7 7 6 7 7
Height
1429 1431 1432 1436 1437 1444 1452 1456 1452 1461 1478 1481 1489 1494 1492 1494 1492 1493 1489 1485 1483 1480 1484 1478 1486 1476 1475 1478 1479 1485 1482 1493 1504 1490 1484 1483 1482 1490 1491 1508 1516 1510 1513 1522
1422 1424 1425 1424 1431 1434 1440 1438 1444 1451 1458 1461 1472 1476 1483 1485 1482 1480 1481 1483 1479 1476 1484 1494 1485 1475 1487 1485 1485 1484 1484 1492 1512 1519 1490 1484 1485 1482 1482 1488 1494 1517 1527 1516
1413 1412 1415 1414 1418 1420 1433 1430 1435 1437 1441 1450 1452 1460 1469 1479 1476 1473 1474 1475 1476 1475 1487 1475 1480 1483 1486 1486 1485 1486 1487 1487 1499 1524 1508 1490 1490 1483 1484 1494 1522 1512 1511 1504
1406 1405 1398 1403 1409 1413 1418 1422 1421 1417 1426 1440 1442 1450 1457 1467 1466 1468 1467 1471 1470 1471 1475 1478 1476 1479 1486 1485 1485 1485 1486 1493 1495 1503 1495 1492 1489 1489 1490 1491 1495 1506 1504 1501
1399 1400 1396 1395 1401 1407 1406 1408 1414 1419 1421 1430 1438 1443 1444 1451 1460 1456 1460 1464 1468 1469 1467 1471 1474 1478 1492 1479 1483 1483 1485 1496 1497 1520 1492 1492 1501 1492 1501 1491 1488 1490 1491 1493
1392 1388 1393 1396 1394 1395 1400 1398 1408 1411 1414 1425 1432 1427 1429 1442 1454 1450 1451 1460 1461 1463 1463 1469 1471 1472 1477 1475 1478 1480 1484 1490 1496 1505 1491 1491 1500 1492 1490 1488 1486 1490 1496 1490
1390 1390 1389 1387 1385 1387 1392 1395 1406 1402 1409 1412 1416 1416 1428 1441 1443 1443 1447 1454 1456 1460 1464 1471 1478 1476 1476 1478 1478 1480 1483 1488 1495 1504 1495 1518 1489 1482 1481 1484 1484 1482 1484 1484
1380 1380 1382 1382 1383 1385 1389 1383 1390 1397 1402 1405 1413 1424 1431 1441 1442 1445 1445 1449 1455 1459 1466 1475 1482 1482 1483 1481 1479 1482 1483 1488 1503 1509 1502 1490 1482 1482 1486 1489 1488 1482 1485 1487
1376 1371 1374 1377 1376 1380 1378 1384 1390 1397 1402 1405 1411 1422 1428 1433 1436 1445 1445 1450 1452 1457 1469 1477 1485 1487 1482 1485 1482 1481 1485 1488 1497 1504 1507 1504 1476 1471 1479 1485 1495 1480 1483 1490
1372 1370 1376 1378 1374 1372 1372 1381 1393 1397 1401 1405 1405 1407 1412 1421 1429 1437 1444 1448 1457 1457 1463 1478 1481 1478 1469 1474 1481 1489 1488 1495 1501 1504 1508 1493 1475 1478 1481 1500 1495 1483 1487 1491
1367 1367 1363 1365 1370 1373 1375 1381 1377 1387 1390 1391 1400 1401 1403 1415 1421 1428 1435 1448 1453 1457 1465 1469 1464 1459 1457 1462 1463 1477 1483 1490 1494 1496 1505 1505 1478 1480 1487 1485 1485 1487 1490 1492
1367 1363 1364 1364 1359 1364 1372 1372 1380 1387 1388 1396 1396 1401 1410 1412 1417 1424 1428 1436 1439 1443 1449 1450 1451 1453 1448 1453 1467 1463 1481 1474 1480 1481 1480 1474 1474 1475 1480 1483 1486 1488 1490 1491
1363 1363 1365 1367 1367 1368 1373 1370 1374 1375 1386 1394 1404 1407 1406 1411 1413 1418 1426 1432 1435 1435 1438 1442 1445 1450 1444 1454 1453 1454 1461 1466 1468 1471 1467 1468 1472 1474 1479 1483 1486 1487 1489 1491
1363 1362 1365 1367 1367 1363 1364 1367 1368 1378 1385 1393 1399 1402 1407 1406 1416 1420 1420 1427 1435 1434 1438 1445 1447 1446 1444 1447 1450 1452 1454 1459 1463 1465 1465 1468 1472 1475 1479 1482 1484 1485 1486 1487
1358 1359 1362 1363 1362 1363 1362 1360 1365 1372 1381 1389 1396 1396 1403 1407 1411 1417 1421 1426 1431 1434 1439 1442 1443 1441 1446 1446 1449 1450 1449 1453 1460 1461 1463 1466 1470 1473 1477 1480 1481 1482 1482 1483
1353 1354 1358 1357 1356 1356 1359 1360 1362 1366 1373 1380 1393 1401 1405 1407 1411 1414 1423 1424 1431 1431 1432 1436 1438 1440 1443 1447 1449 1447 1450 1451 1453 1456 1461 1464 1467 1470 1473 1475 1478 1479 1480 1481
1353 1357 1357 1358 1357 1358 1357 1358 1360 1363 1373 1377 1396 1402 1403 1405 1411 1418 1422 1426 1430 1435 1438 1438 1437 1442 1445 1447 1445 1445 1446 1450 1452 1454 1457 1461 1465 1468 1469 1472 1475 1476 1476 1476
1351 1354 1356 1356 1356 1355 1354 1355 1356 1363 1370 1375 1389 1401 1405 1406 1411 1417 1423 1426 1432 1435 1436 1439 1442 1447 1450 1448 1443 1445 1444 1447 1449 1452 1455 1460 1464 1465 1466 1468 1471 1472 1471 1471
1352 1351 1349 1351 1351 1352 1353 1356 1360 1360 1366 1371 1382 1391 1400 1406 1412 1419 1425 1428 1432 1436 1439 1442 1443 1447 1446 1438 1438 1439 1442 1445 1449 1451 1454 1456 1459 1461 1463 1465 1466 1467 1468 1469
1353 1355 1356 1354 1352 1356 1360 1364 1359 1356 1364 1367 1370 1380 1388 1397 1404 1414 1421 1424 1431 1436 1441 1441 1444 1435 1433 1434 1434 1437 1439 1442 1445 1449 1450 1451 1455 1458 1461 1463 1465 1466 1466 1466
1351 1351 1351 1353 1355 1356 1354 1353 1354 1358 1362 1361 1366 1372 1378 1397 1402 1410 1418 1426 1433 1436 1438 1441 1437 1423 1422 1427 1429 1434 1439 1441 1443 1446 1448 1450 1453 1457 1459 1460 1460 1461 1462 1463
1347 1349 1352 1354 1353 1352 1352 1350 1355 1353 1350 1351 1357 1371 1378 1391 1401 1411 1420 1425 1431 1430 1433 1438 1429 1407 1411 1416 1422 1429 1435 1439 1439 1442 1445 1448 1452 1453 1455 1457 1457 1457 1458 1458
1347 1349 1352 1351 1350 1345 1342 1342 1344 1339 1337 1346 1352 1369 1380 1394 1402 1412 1415 1426 1433 1433 1440 1432 1409 1403 1407 1410 1417 1425 1432 1437 1439 1440 1442 1445 1447 1450 1451 1453 1453 1453 1453 1453
1344 1344 1345 1346 1339 1335 1328 1324 1321 1322 1328 1338 1352 1364 1376 1387 1398 1406 1412 1421 1429 1428 1423 1405 1400 1400 1405 1410 1415 1423 1430 1435 1435 1436 1439 1443 1446 1447 1447 1447 1449 1448 1447 1447
1340 1340 1338 1336 1332 1327 1323 1322 1321 1326 1334 1343 1355 1367 1376 1388 1399 1400 1406 1415 1414 1402 1387 1388 1394 1398 1404 1408 1413 1421 1426 1427 1429 1434 1439 1441 1443 1444 1443 1443 1443 1442 1441 1440
1334 1334 1333 1328 1325 1323 1321 1317 1318 1329 1337 1344 1349 1366 1380 1385 1384 1389 1395 1395 1386 1378 1382 1385 1389 1396 1401 1407 1414 1419 1420 1421 1424 1432 1436 1438 1439 1439 1438 1437 1437 1437 1436 1435
1330 1327 1328 1328 1327 1325 1320 1317 1321 1329 1330 1336 1348 1360 1368 1370 1375 1377 1376 1374 1371 1375 1379 1384 1391 1397 1402 1405 1410 1413 1413 1417 1423 1428 1431 1433 1433 1432 1431 1432 1433 1432 1431 1431
Wind_Speed
37 35 34 43 38 41 46 44 9 46 58 19 18 17 20 28 23 33 26 12 17 12 12 10 18 16 9 2 3 12 10 3 4 9 14 19 13 15 14 3 7 2 2 4
34 36 35 49 37 44 52 15 12 50 59 14 15 15 18 11 20 23 20 17 16 15 3 4 11 6 6 5 6 2 10 7 4 9 7 8 10 14 9 10 2 9 5 2
26 31 29 44 34 48 56 12 7 18 39 27 18 19 16 13 25 23 23 17 19 10 14 13 7 5 3 8 8 2 3 3 5 5 6 6 11 11 10 6 2 6 8 10
26 30 26 40 32 50 59 32 5 9 13 19 19 23 18 24 16 26 26 17 15 17 10 14 9 14 12 10 5 5 3 8 1 1 9 6 12 6 8 11 13 7 10 12
25 27 23 19 33 46 51 14 8 15 20 23 18 20 17 29 29 24 18 13 15 22 12 11 9 10 4 8 8 10 6 4 7 6 7 4 8 5 11 10 10 13 13 13
25 26 31 24 30 27 38 40 24 22 15 18 15 21 23 22 25 21 30 23 16 16 11 2 9 12 5 7 10 10 9 3 8 7 9 11 10 11 13 12 14 15 15 12
22 24 26 26 30 22 32 30 30 14 5 14 22 22 22 25 30 16 28 33 11 9 13 13 6 7 4 1 8 2 5 9 4 3 2 5 7 5 7 9 12 13 15 10
22 26 20 20 24 16 57 19 21 12 6 19 21 21 29 31 27 23 13 20 20 22 16 6 4 2 1 6 10 8 5 2 3 3 8 7 7 11 7 6 9 11 9 3
21 22 26 24 23 27 22 29 31 17 7 11 33 25 36 14 10 6 1 17 28 22 4 4 5 6 7 9 6 7 7 2 4 3 4 6 5 1 12 2 6 10 7 8
21 22 23 23 26 28 12 32 44 26 9 5 21 18 22 23 13 7 7 12 9 12 4 3 4 8 9 8 12 7 6 3 5 4 3 6 2 11 10 3 2 9 11 11
21 21 18 18 21 24 13 26 38 25 10 10 13 12 10 23 18 6 12 7 2 5 6 7 6 6 11 9 13 12 10 8 5 7 5 9 12 12 7 4 8 8 7 8
20 10 14 16 19 19 24 12 31 33 12 6 11 16 12 14 28 24 26 7 12 10 6 5 5 4 6 9 6 15 10 7 5 8 5 6 7 15 17 1 0 7 7 6
19 13 9 10 19 24 22 8 45 29 14 6 8 10 20 14 26 22 12 14 19 13 13 4 3 9 4 7 9 11 10 22 6 7 9 9 8 12 5 5 5 6 5 9
20 13 10 9 20 19 19 18 34 38 11 4 4 13 14 23 10 16 17 19 22 17 13 2 2 4 7 6 6 10 8 11 8 5 6 7 12 11 9 9 9 11 14 17
17 9 11 10 15 17 15 19 39 34 22 6 7 12 10 21 20 17 17 30 27 21 14 5 5 8 4 4 3 9 14 8 9 5 8 11 10 12 12 14 16 12 11 13
16 15 14 11 12 13 12 6 30 33 20 9 3 5 7 17 22 23 18 16 16 12 8 5 4 4 2 3 4 11 18 21 19 12 15 11 9 9 9 11 12 13 15 17
16 15 13 12 9 17 13 3 1 33 30 8 4 1 5 16 18 18 11 11 7 4 4 1 1 1 2 1 6 10 20 19 15 12 9 10 10 12 11 11 13 14 15 15
14 13 11 11 6 13 16 21 7 39 16 7 4 3 3 13 6 6 6 5 4 2 3 4 4 4 2 5 13 21 10 9 9 12 14 13 12 11 11 11 13 14 14 16
13 7 9 9 3 6 13 20 18 26 7 6 4 6 4 10 7 8 5 5 3 4 2 2 7 4 6 9 16 15 22 22 21 19 19 18 16 12 10 9 10 12 13 15
12 12 4 3 5 7 15 17 5 5 5 7 3 11 4 18 8 3 4 5 3 3 4 7 2 7 19 12 11 17 17 13 11 11 13 12 10 6 5 6 6 8 9 12
17 8 8 5 15 11 6 3 2 4 3 6 14 22 12 13 5 3 6 3 2 4 4 5 4 6 16 26 23 18 16 15 17 17 15 10 8 8 8 6 6 7 9 12
17 8 8 8 5 4 4 3 3 4 6 9 13 23 24 16 11 5 3 3 2 4 9 4 4 5 13 22 29 26 19 15 16 16 14 13 12 9 7 5 5 7 10 13
14 5 6 4 4 5 6 7 3 5 9 26 35 17 15 8 7 5 4 5 4 14 3 5 5 8 17 19 24 21 16 17 17 16 14 12 11 10 9 6 6 8 10 13
4 6 5 3 4 5 6 7 7 11 31 36 34 21 4 8 3 4 5 5 6 6 6 7 4 14 18 20 23 23 22 20 17 14 13 13 13 11 9 7 9 11 12 14
7 6 4 8 6 10 14 13 18 29 40 40 23 15 11 4 4 3 5 7 7 8 5 4 14 19 24 27 25 22 20 19 17 16 15 15 15 11 9 10 13 13 13 14
5 6 4 5 4 6 15 21 27 41 41 31 15 6 5 3 6 7 7 8 7 4 5 14 22 25 26 24 23 21 19 16 17 17 15 12 11 11 14 14 14 14 14 16
5 4 13 12 9 7 12 26 40 45 32 7 4 6 7 7 5 7 7 4 4 14 15 18 26 26 25 23 20 18 17 16 16 15 14 12 13 14 14 15 14 16 17 19
Wind_Direction
260 253 250 235 242 235 213 202 205 203 206 183 186 208 212 224 210 222 236 263 270 253 257 231 242 233 172 250 297 207 232 188 225 224 215 227 221 212 229 197 228 154 186 154
253 246 254 237 234 225 203 209 165 175 180 180 188 195 198 210 207 216 217 229 240 238 148 253 261 176 162 230 235 132 221 168 187 326 199 224 242 211 217 213 182 180 246 182
254 257 257 236 234 226 202 182 173 171 180 201 186 181 190 196 219 213 210 216 236 204 234 211 179 116 196 201 207 101 313 270 156 196 314 320 217 231 199 150 86 244 218 252
262 268 258 234 242 222 199 209 206 179 178 197 195 188 176 190 203 215 212 226 228 227 208 212 184 164 185 194 159 168 222 252 100 106 217 258 230 249 261 234 206 217 238 258
265 265 241 250 244 220 207 188 181 170 178 181 191 181 193 193 204 186 205 201 209 233 206 205 202 156 312 180 175 189 178 215 147 235 210 209 294 217 239 256 263 260 264 262
270 262 249 249 243 245 207 222 189 169 174 183 180 195 189 202 194 209 193 200 211 223 182 86 41 37 158 129 175 190 172 207 204 230 219 241 235 235 249 253 248 250 254 260
263 245 257 265 235 270 201 190 194 187 186 180 201 185 193 197 196 182 189 204 198 157 115 98 80 83 109 145 185 190 205 203 193 249 215 230 237 237 290 269 279 262 256 253
265 247 247 257 232 293 221 226 190 181 177 196 189 198 193 207 203 201 206 201 186 144 132 118 128 149 177 221 228 197 222 238 124 214 216 260 193 205 204 222 258 234 256 245
271 254 251 270 281 252 234 225 197 196 173 213 204 190 195 192 187 153 116 114 149 144 110 125 170 179 192 185 195 192 223 252 160 171 227 236 228 35 157 235 259 239 178 111
283 257 239 245 267 272 235 222 206 200 187 215 194 189 191 175 173 176 139 145 167 174 127 137 166 217 194 188 187 187 180 187 184 179 219 282 29 136 121 177 220 90 130 150
283 243 254 256 260 268 270 234 198 195 175 140 196 193 170 179 165 157 142 132 181 154 161 177 190 192 198 210 182 180 179 176 186 206 198 241 232 145 178 106 124 149 175 172
275 252 251 256 258 272 253 236 200 199 184 165 209 202 202 188 175 169 163 166 156 167 171 192 196 197 189 183 181 163 199 202 173 182 208 201 257 216 195 195 228 201 210 241
274 236 243 248 244 237 230 250 208 177 147 142 177 208 216 234 192 174 160 161 181 181 170 185 169 198 197 184 200 174 191 197 211 193 231 188 205 153 167 243 225 277 285 288
268 221 241 254 229 239 237 247 194 195 140 114 179 211 190 201 232 221 191 197 200 180 189 52 174 182 207 206 190 229 186 185 197 240 234 176 192 216 237 261 251 260 283 291
257 234 244 271 231 225 218 213 178 181 176 143 130 162 179 190 208 204 220 183 183 183 176 191 192 172 172 231 207 222 223 206 197 215 211 241 225 211 232 249 255 270 291 296
252 247 247 264 251 213 205 229 193 176 184 109 116 116 162 160 156 152 170 159 176 174 172 159 203 86 116 159 222 233 231 232 221 196 205 222 237 242 249 267 276 289 289 287
240 236 249 258 230 211 205 202 334 182 181 141 98 136 154 148 151 151 149 138 137 100 170 255 332 125 179 240 218 216 224 233 232 222 222 244 237 246 252 257 269 282 289 285
235 240 243 257 269 216 242 231 248 176 167 107 112 105 94 139 116 87 152 141 141 99 84 103 127 110 225 244 226 237 229 208 222 221 221 238 246 255 260 267 284 286 294 306
222 243 239 262 276 193 222 226 200 177 140 118 141 143 146 134 120 115 125 132 107 109 122 205 142 171 220 232 224 224 224 231 236 237 234 231 234 246 258 277 298 308 307 300
202 196 200 230 215 175 182 175 221 108 138 186 140 136 132 157 138 94 71 58 111 135 202 141 247 237 227 235 219 220 218 214 208 231 227 216 227 238 261 264 272 282 293 300
191 187 195 248 158 160 180 157 183 132 145 193 152 147 131 147 125 120 116 131 177 178 175 168 225 241 226 229 227 227 225 226 230 226 223 215 204 205 218 236 259 286 296 295
186 165 161 188 206 201 176 175 145 203 185 165 148 147 127 118 120 87 103 90 204 176 142 181 254 219 216 205 216 218 222 215 205 195 189 183 192 199 205 221 252 274 279 286
159 168 161 172 208 215 186 177 190 170 171 146 145 142 128 130 101 112 128 126 192 129 147 223 246 197 189 201 200 188 182 184 175 170 176 184 188 191 197 219 257 272 281 283
192 152 198 225 195 224 210 192 185 161 142 143 142 132 110 123 110 132 124 156 147 201 211 223 178 201 178 165 162 167 177 177 180 183 186 190 192 194 212 264 285 294 302 297
206 142 228 219 236 276 237 214 142 141 142 138 132 103 98 91 116 163 134 173 207 214 226 151 170 174 164 167 173 177 179 181 180 184 189 197 206 232 260 283 292 298 309 308
205 182 245 259 266 249 232 164 141 143 141 135 97 105 144 162 147 161 191 184 215 193 196 161 177 172 171 169 174 178 175 179 182 194 203 226 247 260 283 292 301 302 304 305
218 185 203 262 292 220 191 158 147 153 144 128 117 125 178 126 183 188 178 205 143 139 163 164 171 171 170 169 170 173 170 174 186 198 210 225 245 270 289 298 299 293 293 291